Main page
METAR-TAF:

METAR-TAF

Airports :

RAF Boulmer

Boulmer, England

latitude: 55-25-19N, longitude: 1-36-12W, elevation: 24 m

Current weather observation

The report was made 44 minutes ago, at 03:50 UTC
Wind 11 kt from the South/Southwest
Temperature 15°C
Humidity 88%
Pressure 1005 hPa
Visibility 10 km or more

METAR: EGQM 160350Z AUTO 21011KT 9999 OVC046/// 15/13 Q1005

Time: 05:34 (04:34 UTC)


TAF: missing

Weather observations and forecasts of more than 4000 airports (METAR and TAF reports).

The available stations are represented by yellow and red dots on the map.

Hover mouse over dot to see the name of the station.

Then click to see weather observations and forecasts.

To change the map : click on the green buttons with a black cross to zoom in, on the green button with a dash to zoom out, or on the green arrows for adjacent maps.


METAR-TAF: